Shreveport, LA

12:02 AM CDT on October 17, 2017 (GMT -0500)
Shreveport Regional

Weather History for KSHV - June, 2012

Change the Weather History Date:

Friday, June 1, 2012

  Actual Average Record
Temperature  
Mean Temperature 74 °F 77 °F  
Max Temperature 86 °F 88 °F 102 °F (1998)
Min Temperature 61 °F 67 °F 53 °F (1903)
Degree Days  
Heating Degree Days 0 0  
Month to date heating degree days 0 0  
Since 1 June heating degree days 0 0  
Since 1 July heating degree days 1535 2226  
Cooling Degree Days 9 12  
Month to date cooling degree days 9 12  
Year to date cooling degree days 705 410  
Since 1 June cooling degree days 9 12  
Growing Degree Days 24 (Base 50)    
Moisture  
Dew Point 52 °F    
Average Humidity 51    
Maximum Humidity 78    
Minimum Humidity 24    
Precipitation  
Precipitation 0.00 in 0.17 in 3.63 in (1996)
Month to date precipitation 0.00 0.17  
Year to date precipitation 19.19 22.38  
Snow  
Snow 0.00 in - - ()
Month to date snowfall 0.0  
Since 1 June snowfall 0.0  
Since 1 July snowfall T  
Snow Depth 0.00 in    
Sea Level Pressure  
Sea Level Pressure 29.93 in    
Wind  
Wind Speed 6 mph (NNW)    
Max Wind Speed 16 mph    
Max Gust Speed 24 mph    
Visibility 10 miles    
Events      
T = Trace of Precipitation, MM = Missing Value Source: NWS Daily Summary

Daily Weather History Graph

Daily Weather History Graph

Search for Another Location

Airport or City:

Trip Planner

Search our weather history database for the weather conditions in past years. The results will help you decide how hot, cold, wet, or windy it might be!

Date:

Astronomy

Jun. 01, 2012 Rise Set
Actual Time 6:08 AM CDT 8:17 PM CDT
Civil Twilight 5:40 AM CDT 8:46 PM CDT
Nautical Twilight 5:06 AM CDT 9:20 PM CDT
Astronomical Twilight 4:29 AM CDT 9:57 PM CDT
Moon 5:27 PM CDT (6/1) 3:36 AM CDT (6/1)
Length of Visible Light 15h 05m
Length of Day
14h 09m
Waxing Gibbous, 89% of the Moon is Illuminated
Jun 1
Waxing Gibbous
Jun 4
Full
Jun 11
Last Quarter
Jun 19
New
Jun 26
First Quarter

Hourly Weather History & Observations

Time (CDT) Temp. Dew Point Humidity Pressure Visibility Wind Dir Wind Speed Gust Speed Precip Events Conditions
12:56 AM 73.9 °F 55.9 °F 53% 29.88 in 10.0 mi NNW 12.7 mph - N/A   Mostly Cloudy
1:56 AM 72.0 °F 54.0 °F 53% 29.88 in 10.0 mi NNW 10.4 mph - N/A   Mostly Cloudy
2:56 AM 70.0 °F 54.0 °F 57% 29.88 in 10.0 mi NNW 11.5 mph - N/A   Clear
3:56 AM 64.4 °F 53.6 °F 68% 29.90 in 10.0 mi WNW 5.8 mph - N/A   Clear
4:56 AM 63.0 °F 55.0 °F 75% 29.91 in 10.0 mi WNW 6.9 mph - N/A   Clear
5:56 AM 64.9 °F 54.0 °F 68% 29.93 in 10.0 mi North 8.1 mph - N/A   Clear
6:56 AM 66.0 °F 54.0 °F 65% 29.96 in 10.0 mi NNW 6.9 mph - N/A   Clear
7:56 AM 66.9 °F 52.0 °F 59% 29.98 in 10.0 mi North 9.2 mph - N/A   Clear
8:56 AM 70.0 °F 52.0 °F 53% 29.99 in 10.0 mi North 10.4 mph 16.1 mph N/A   Clear
9:56 AM 72.0 °F 52.0 °F 49% 29.99 in 10.0 mi Variable 5.8 mph - N/A   Clear
10:56 AM 75.0 °F 48.9 °F 40% 29.98 in 10.0 mi Variable 3.5 mph - N/A   Clear
11:56 AM 78.1 °F 48.9 °F 36% 29.97 in 10.0 mi North 5.8 mph - N/A   Clear
12:56 PM 80.1 °F 46.9 °F 31% 29.96 in 10.0 mi Calm Calm - N/A   Clear
1:56 PM 82.0 °F 42.1 °F 24% 29.94 in 10.0 mi NNW 9.2 mph - N/A   Partly Cloudy
2:56 PM 84.0 °F 46.9 °F 27% 29.93 in 10.0 mi NE 8.1 mph - N/A   Partly Cloudy
3:56 PM 84.0 °F 50.0 °F 31% 29.91 in 10.0 mi WNW 8.1 mph - N/A   Partly Cloudy
4:56 PM 84.9 °F 50.0 °F 30% 29.91 in 10.0 mi Calm Calm - N/A   Partly Cloudy
5:56 PM 82.9 °F 50.0 °F 32% 29.90 in 10.0 mi North 4.6 mph - N/A   Mostly Cloudy
6:56 PM 82.9 °F 51.1 °F 33% 29.90 in 10.0 mi North 6.9 mph - N/A   Mostly Cloudy
7:56 PM 81.0 °F 51.1 °F 35% 29.90 in 10.0 mi NNW 4.6 mph - N/A   Mostly Cloudy
8:56 PM 78.1 °F 51.1 °F 39% 29.90 in 10.0 mi NNE 6.9 mph - N/A   Mostly Cloudy
9:56 PM 73.9 °F 53.1 °F 48% 29.90 in 10.0 mi East 5.8 mph - N/A   Mostly Cloudy
10:56 PM 73.0 °F 54.0 °F 51% 29.92 in 10.0 mi Calm Calm - N/A   Mostly Cloudy
11:56 PM 72.0 °F 53.1 °F 51% 29.92 in 10.0 mi Calm Calm - N/A   Mostly Cloudy